When you browse on this site, cookies collect data to enhance your experience and personalize the content and advertising you see.
Visit our Privacy Policy to learn more. By continuing to use the site, you agree to this use of cookies and data.
  • In United Kingdom
  • List of Countries
  • For 7 days
  • Water Temperature
  • Weather Map
  • Weather Widgets
  • user-avatar
    Login

    Hourly Weather Drobeta-Turnu Severin

    Today, 23 September, Monday

    Time Temperature Precipitation Wind Pressure Humidity
    00:00 +15°C° 0 mm 1 mps 755 mmHg 34%
    01:00 +15°C° 0 mm 1 mps 755 mmHg 34%
    02:00 +15°C° 0 mm 1 mps 755 mmHg 34%
    03:00 +15°C° 0 mm 0 mps 755 mmHg 33%
    04:00 +15°C° 0 mm 0 mps 754 mmHg 33%
    05:00 +15°C° 0 mm 0 mps 754 mmHg 32%
    06:00 +16°C° 0 mm 0 mps 754 mmHg 32%
    07:00 +16°C° 0 mm 0 mps 754 mmHg 31%
    08:00 +17°C° 0 mm 0 mps 755 mmHg 30%
    09:00 +18°C° 0 mm 0 mps 754 mmHg 30%
    10:00 +21°C° 0 mm 1 mps 754 mmHg 29%
    11:00 +22°C° 0 mm 1 mps 754 mmHg 29%
    12:00 +22°C° 0 mm 1 mps 754 mmHg 30%
    13:00 +22°C° 0 mm 1 mps 753 mmHg 31%
    14:00 +23°C° 0 mm 1 mps 753 mmHg 32%
    15:00 +23°C° 0 mm 1 mps 753 mmHg 33%
    16:00 +24°C° 0 mm 1 mps 752 mmHg 34%
    17:00 +24°C° 0 mm 1 mps 752 mmHg 35%
    18:00 +23°C° 0 mm 1 mps 752 mmHg 39%
    19:00 +19°C° 0 mm 0 mps 753 mmHg 44%
    20:00 +17°C° 0 mm 0 mps 753 mmHg 49%
    21:00 +17°C° 0 mm 0 mps 753 mmHg 50%
    22:00 +16°C° 0 mm 0 mps 752 mmHg 52%
    23:00 +18°C° 0 mm 1 mps 752 mmHg 53%

    Tomorrow, 24 September, Tuesday

    Time Temperature Precipitation Wind Pressure Humidity
    00:00 +18°C° 0 mm 1 mps 752 mmHg 54%
    01:00 +18°C° 0 mm 1 mps 752 mmHg 55%
    02:00 +16°C° 0 mm 1 mps 752 mmHg 55%
    03:00 +18°C° 0 mm 1 mps 752 mmHg 55%
    04:00 +18°C° 0 mm 1 mps 752 mmHg 54%
    05:00 +18°C° 0 mm 1 mps 751 mmHg 54%
    06:00 +18°C° 0 mm 2 mps 751 mmHg 52%
    07:00 +18°C° 0 mm 2 mps 752 mmHg 50%
    08:00 +19°C° 0 mm 2 mps 752 mmHg 48%
    09:00 +20°C° 0 mm 3 mps 752 mmHg 46%
    10:00 +20°C° 0 mm 4 mps 752 mmHg 45%
    11:00 +21°C° 0 mm 4 mps 752 mmHg 43%
    12:00 +21°C° 0 mm 4 mps 752 mmHg 43%
    13:00 +21°C° 0 mm 5 mps 752 mmHg 42%
    14:00 +21°C° 0 mm 5 mps 752 mmHg 42%
    15:00 +21°C° 0 mm 5 mps 752 mmHg 45%
    16:00 +20°C° 0 mm 4 mps 752 mmHg 47%
    17:00 +20°C° 0 mm 4 mps 752 mmHg 50%
    18:00 +20°C° 0 mm 4 mps 752 mmHg 52%
    19:00 +19°C° 0 mm 4 mps 753 mmHg 54%
    20:00 +19°C° 0 mm 3 mps 753 mmHg 55%
    21:00 +19°C° 0 mm 3 mps 753 mmHg 57%
    22:00 +18°C° 0 mm 3 mps 753 mmHg 58%
    23:00 +18°C° 0 mm 3 mps 753 mmHg 59%

    Day after tomorrow, 25 September, Wednesday

    Time Temperature Precipitation Wind Pressure Humidity
    00:00 +18°C° 0 mm 2 mps 753 mmHg 60%
    01:00 +18°C° 0 mm 2 mps 753 mmHg 61%
    02:00 +18°C° 0 mm 2 mps 753 mmHg 62%
    03:00 +17°C° 0 mm 2 mps 753 mmHg 65%
    04:00 +17°C° 0 mm 2 mps 753 mmHg 68%
    05:00 +17°C° 0 mm 2 mps 753 mmHg 70%
    06:00 +17°C° 0.1 mm 2 mps 753 mmHg 72%
    07:00 +17°C° 0.1 mm 2 mps 753 mmHg 74%
    08:00 +17°C° 0.1 mm 2 mps 753 mmHg 76%
    09:00 +17°C° 0.1 mm 2 mps 753 mmHg 77%
    10:00 +17°C° 0.1 mm 3 mps 753 mmHg 78%
    11:00 +17°C° 0.1 mm 3 mps 753 mmHg 79%
    12:00 +18°C° 0 mm 3 mps 752 mmHg 74%
    13:00 +19°C° 0 mm 3 mps 752 mmHg 70%
    14:00 +20°C° 0 mm 3 mps 751 mmHg 65%
    15:00 +21°C° 0 mm 3 mps 751 mmHg 63%
    16:00 +21°C° 0 mm 3 mps 751 mmHg 61%
    17:00 +21°C° 0 mm 3 mps 751 mmHg 60%
    18:00 +20°C° 0 mm 2 mps 751 mmHg 63%
    19:00 +19°C° 0 mm 2 mps 751 mmHg 66%
    20:00 +18°C° 0 mm 2 mps 751 mmHg 69%
    21:00 +18°C° 0 mm 2 mps 751 mmHg 70%
    22:00 +18°C° 0 mm 2 mps 751 mmHg 70%
    23:00 +19°C° 0 mm 1 mps 751 mmHg 71%

    26 September, Thursday

    Time Temperature Precipitation Wind Pressure Humidity
    00:00 +18°C° 0 mm 1 mps 751 mmHg 74%
    01:00 +18°C° 0 mm 1 mps 751 mmHg 77%
    02:00 +16°C° 0 mm 1 mps 751 mmHg 81%
    03:00 +16°C° 0 mm 1 mps 751 mmHg 83%
    04:00 +16°C° 0 mm 1 mps 751 mmHg 85%
    05:00 +16°C° 0 mm 1 mps 751 mmHg 87%
    06:00 +16°C° 0 mm 1 mps 751 mmHg 85%
    07:00 +18°C° 0 mm 1 mps 751 mmHg 83%
    08:00 +16°C° 0 mm 0 mps 752 mmHg 82%
    09:00 +17°C° 0.3 mm 0 mps 752 mmHg 80%
    10:00 +17°C° 0.3 mm 0 mps 752 mmHg 79%
    11:00 +18°C° 0.3 mm 0 mps 752 mmHg 78%
    12:00 +20°C° 0.4 mm 1 mps 752 mmHg 76%
    13:00 +21°C° 0.4 mm 1 mps 752 mmHg 75%
    14:00 +21°C° 0.4 mm 1 mps 752 mmHg 73%
    15:00 +21°C° 1.1 mm 1 mps 752 mmHg 78%
    16:00 +19°C° 1.1 mm 2 mps 752 mmHg 82%
    17:00 +18°C° 1.1 mm 2 mps 753 mmHg 87%
    18:00 +18°C° 0.1 mm 3 mps 753 mmHg 87%
    19:00 +17°C° 0.1 mm 4 mps 753 mmHg 88%
    20:00 +15°C° 0.1 mm 4 mps 754 mmHg 88%
    21:00 +15°C° 0 mm 4 mps 754 mmHg 88%
    22:00 +15°C° 0 mm 4 mps 754 mmHg 88%
    23:00 +15°C° 0 mm 4 mps 754 mmHg 88%

    27 September, Friday

    Time Temperature Precipitation Wind Pressure Humidity
    00:00 +15°C° 0 mm 4 mps 755 mmHg 87%
    01:00 +14°C° 0 mm 5 mps 755 mmHg 87%
    02:00 +14°C° 0 mm 5 mps 755 mmHg 86%
    03:00 +14°C° 0 mm 5 mps 755 mmHg 86%
    04:00 +14°C° 0 mm 4 mps 755 mmHg 86%
    05:00 +14°C° 0 mm 4 mps 756 mmHg 85%
    06:00 +14°C° 0 mm 4 mps 756 mmHg 82%
    07:00 +15°C° 0 mm 4 mps 756 mmHg 78%
    08:00 +17°C° 0 mm 4 mps 756 mmHg 75%
    09:00 +19°C° 0 mm 5 mps 756 mmHg 66%
    10:00 +20°C° 0 mm 5 mps 756 mmHg 58%
    11:00 +22°C° 0 mm 5 mps 757 mmHg 49%
    12:00 +23°C° 0 mm 5 mps 756 mmHg 46%
    13:00 +25°C° 0 mm 5 mps 756 mmHg 43%
    14:00 +26°C° 0 mm 5 mps 756 mmHg 39%
    15:00 +25°C° 0 mm 5 mps 756 mmHg 41%
    16:00 +25°C° 0 mm 4 mps 756 mmHg 42%
    17:00 +25°C° 0 mm 4 mps 756 mmHg 44%
    18:00 +21°C° 0 mm 3 mps 756 mmHg 52%
    19:00 +19°C° 0 mm 3 mps 757 mmHg 61%
    20:00 +17°C° 0 mm 2 mps 757 mmHg 70%
    21:00 +16°C° 0 mm 2 mps 757 mmHg 73%
    22:00 +16°C° 0 mm 2 mps 758 mmHg 75%
    23:00 +15°C° 0 mm 2 mps 758 mmHg 78%

    28 September, Saturday

    Time Temperature Precipitation Wind Pressure Humidity
    00:00 +15°C° 0 mm 2 mps 758 mmHg 80%
    01:00 +15°C° 0 mm 2 mps 758 mmHg 82%
    02:00 +14°C° 0 mm 1 mps 758 mmHg 85%
    03:00 +14°C° 0 mm 1 mps 758 mmHg 86%
    04:00 +14°C° 0 mm 1 mps 758 mmHg 88%
    05:00 +14°C° 0 mm 1 mps 758 mmHg 90%
    06:00 +14°C° 0 mm 1 mps 758 mmHg 85%
    07:00 +15°C° 0 mm 1 mps 758 mmHg 81%
    08:00 +16°C° 0 mm 1 mps 758 mmHg 76%
    09:00 +19°C° 0 mm 1 mps 758 mmHg 69%
    10:00 +21°C° 0 mm 1 mps 758 mmHg 61%
    11:00 +23°C° 0 mm 2 mps 758 mmHg 54%
    12:00 +24°C° 0 mm 2 mps 758 mmHg 49%
    13:00 +25°C° 0 mm 2 mps 757 mmHg 45%
    14:00 +26°C° 0 mm 2 mps 757 mmHg 41%
    15:00 +26°C° 0 mm 2 mps 756 mmHg 40%
    16:00 +26°C° 0 mm 2 mps 756 mmHg 39%
    17:00 +26°C° 0 mm 1 mps 756 mmHg 39%
    18:00 +24°C° 0 mm 1 mps 756 mmHg 45%
    19:00 +21°C° 0 mm 1 mps 756 mmHg 52%
    20:00 +19°C° 0 mm 1 mps 756 mmHg 59%
    21:00 +19°C° 0 mm 1 mps 757 mmHg 61%
    22:00 +18°C° 0 mm 1 mps 757 mmHg 62%
    23:00 +18°C° 0 mm 1 mps 757 mmHg 64%
    Show more